Theta_e
352 353 357 358 357 358 357 356 354 354 354 352 351 350 350 350 350 350 350 350 351 351 352 352 352 352 353 353 353 353 353 353 354 354 353 353 353 352 352 352 351 352 352 352 352 353 353 352 351 351 351 351 352 353 352 353 352 351 350 350 350 350 350 349 349 349 348 348 347 347 347 347 347 346 346 345 345 345 344 344 343 340 340 342 343
351 355 357 356 357 357 356 356 355 354 353 352 353 351 349 350 350 349 350 350 351 351 351 351 351 352 352 353 353 353 353 353 353 353 353 353 353 352 352 352 351 352 352 352 351 351 351 351 351 351 350 351 351 352 351 350 350 349 348 348 349 349 349 349 349 349 349 349 349 348 347 347 347 346 346 345 343 342 341 341 342 338 337 342 342
354 355 356 356 357 356 356 356 355 354 354 352 351 350 349 349 349 349 349 349 350 351 351 352 352 352 352 352 353 353 353 353 353 353 353 353 352 352 352 351 351 351 351 351 351 351 350 350 350 350 350 351 351 351 351 350 349 348 348 348 349 348 348 348 347 347 347 348 348 348 348 347 346 346 345 345 345 344 343 342 340 339 336 341 341
352 355 355 355 356 356 355 355 354 353 353 351 352 350 349 349 349 349 349 350 350 350 351 351 352 352 352 352 353 353 353 353 353 353 353 352 352 353 352 351 352 351 351 350 350 350 349 350 350 350 350 350 351 351 350 350 349 348 347 347 347 347 346 346 346 346 346 346 346 345 344 340 344 345 345 346 346 344 343 343 342 339 339 340 340
353 354 355 354 354 355 355 354 354 354 353 353 352 350 348 349 349 349 349 350 350 350 350 351 352 352 353 353 353 353 353 353 353 352 352 352 352 352 352 352 351 351 350 349 349 349 349 349 349 349 349 350 350 350 349 348 348 347 346 347 347 347 345 345 345 345 345 344 343 341 336 340 341 344 341 341 342 341 341 341 341 342 340 339 339
353 354 354 353 353 353 354 353 353 353 352 351 352 350 349 348 349 349 349 349 349 350 350 351 351 352 352 353 353 353 353 353 352 352 352 352 351 352 351 350 349 349 349 347 347 347 347 348 349 348 349 350 350 350 348 348 348 347 347 347 346 346 347 346 344 344 343 342 340 334 333 335 338 341 344 342 343 342 341 342 339 338 338 340 340
353 354 353 353 352 353 353 353 353 353 352 353 352 350 349 349 349 349 349 349 349 350 350 351 351 351 352 353 353 353 353 353 352 352 352 351 352 352 352 351 350 347 346 346 347 346 346 346 346 347 349 349 349 348 347 347 346 346 345 345 344 344 344 345 344 342 342 337 331 332 333 336 337 339 343 343 343 341 339 341 341 340 340 339 338
353 353 353 353 351 353 353 353 353 353 353 353 351 350 350 350 349 349 349 349 349 349 350 351 351 352 352 352 352 353 353 352 352 352 352 351 351 351 350 350 349 349 349 349 347 345 344 344 343 345 345 346 347 347 346 345 345 344 344 343 344 344 345 345 344 341 340 333 332 332 333 334 334 334 341 342 342 340 338 340 340 341 341 341 339
351 352 353 352 351 354 353 353 353 353 353 351 350 350 349 349 349 349 349 349 349 349 349 350 352 352 353 352 352 352 353 353 353 352 351 351 351 350 350 350 349 348 348 347 347 347 346 344 342 343 345 346 346 345 344 344 343 343 343 344 345 345 345 347 345 341 336 333 331 331 332 333 334 333 336 340 341 341 340 340 340 340 340 340 340
352 352 352 352 351 354 353 353 352 353 352 350 350 349 349 349 349 349 349 349 349 349 349 351 352 352 352 352 353 352 353 353 352 351 351 350 350 349 349 349 347 346 346 346 347 347 345 344 343 344 345 344 344 344 343 343 343 343 343 344 345 343 346 347 342 338 332 332 333 333 336 341 334 335 336 338 339 340 339 339 341 338 339 340 340
351 352 352 351 351 353 352 352 352 352 351 350 350 349 349 349 349 349 349 349 349 349 350 351 351 352 352 352 352 353 353 352 352 351 350 350 350 349 349 349 348 348 348 347 347 347 347 347 345 344 343 343 343 343 342 342 343 342 343 344 345 342 341 341 338 333 332 331 330 332 339 340 331 332 338 339 339 338 340 338 337 338 338 339 343
351 351 351 351 354 352 352 352 352 352 351 351 350 349 349 348 349 348 348 348 349 350 351 351 351 352 352 352 353 353 352 352 352 351 351 350 350 350 349 348 347 347 347 346 345 344 344 344 343 343 343 343 344 343 342 342 342 342 343 345 344 340 340 339 332 330 330 331 332 330 330 330 330 336 339 340 339 340 341 339 339 339 339 338 339
349 350 350 351 350 353 352 352 352 352 351 351 350 349 348 348 347 348 348 348 349 349 350 351 352 352 352 353 353 353 352 352 351 351 351 350 350 348 348 347 347 345 344 343 343 343 343 344 343 342 344 343 343 342 342 342 343 343 343 345 343 339 339 338 331 331 331 331 332 331 330 330 333 338 338 338 338 340 340 340 340 339 339 339 339
348 349 350 349 349 353 351 351 351 352 351 350 350 349 348 348 347 347 348 348 349 349 350 351 351 352 352 352 352 352 352 351 350 350 350 350 349 347 347 347 347 347 346 345 345 343 342 342 342 344 344 344 343 342 342 343 343 343 342 344 344 339 340 339 337 332 333 333 333 333 332 335 336 342 341 341 342 342 341 341 342 342 342 341 341
347 348 348 348 349 350 353 351 351 351 351 350 349 348 348 348 348 348 348 348 348 349 350 350 351 351 352 352 351 352 351 350 350 350 350 349 348 348 347 347 346 346 346 346 345 344 344 343 342 342 342 342 342 342 342 343 342 342 344 345 345 339 339 333 334 332 333 334 332 333 331 335 344 343 343 344 343 343 342 342 342 342 342 342 341
348 347 348 347 348 349 349 352 351 350 350 349 348 348 348 348 347 347 348 348 348 349 350 350 350 350 350 351 351 351 351 350 350 349 349 349 348 348 347 346 346 346 346 346 346 344 343 343 343 342 342 342 342 342 343 342 342 343 343 344 344 339 339 336 331 330 329 330 330 333 331 337 343 342 343 343 343 343 343 342 341 341 341 341 340
347 347 346 346 347 348 348 348 349 351 350 349 348 348 347 348 347 347 348 348 349 349 349 349 349 349 350 350 350 350 350 350 349 349 349 349 348 348 347 346 346 346 346 346 345 344 344 343 344 342 342 342 342 342 343 342 342 343 343 345 343 340 339 336 330 329 329 333 333 331 330 334 342 342 343 342 343 342 342 341 341 340 340 340 340
347 347 346 346 346 346 347 346 347 346 346 349 349 347 347 346 347 347 347 348 348 348 349 349 349 349 349 349 349 350 349 349 349 348 348 348 347 347 347 346 346 346 346 346 345 344 344 344 343 343 342 342 343 342 342 342 343 343 344 344 342 340 339 336 329 330 331 336 331 334 332 340 342 341 340 341 341 341 341 340 339 339 339 338 338
346 346 346 345 345 345 345 345 345 344 344 343 344 346 347 346 347 347 347 347 348 348 348 348 349 349 348 348 348 349 348 349 349 348 348 347 347 347 346 346 346 345 346 345 346 345 344 344 343 343 342 343 343 343 343 344 344 343 344 342 342 340 339 335 331 331 333 331 329 329 331 341 342 342 342 341 340 339 339 338 338 338 337 337 337
345 345 344 344 344 344 343 343 343 342 341 341 343 343 345 346 347 347 347 347 347 347 349 348 348 348 348 348 347 347 347 346 349 347 348 347 347 345 346 346 346 345 344 345 345 345 345 344 344 341 343 342 343 343 344 344 343 343 344 342 341 340 332 330 332 332 331 331 332 330 341 341 341 340 339 338 337 337 337 337 336 336 336 335 335
343 343 342 343 344 343 343 342 342 341 341 341 342 343 344 347 347 347 347 347 346 347 348 348 347 347 347 347 346 340 339 340 341 340 347 342 346 346 345 345 345 345 344 343 345 345 345 345 343 343 343 343 343 342 341 342 343 343 342 340 339 330 330 331 332 333 332 334 336 335 341 341 340 337 337 335 335 335 335 335 335 335 334 333 334
339 340 342 342 342 342 342 341 341 341 342 342 343 343 344 345 343 343 344 344 345 346 345 344 347 339 347 344 338 342 337 334 337 346 339 341 342 346 345 345 345 345 344 344 345 344 345 345 344 343 343 343 343 331 331 337 342 343 342 339 330 328 329 331 332 333 333 331 334 338 341 340 337 336 335 334 334 334 334 334 332 333 332 332 333
337 339 340 341 341 341 340 341 342 342 342 341 342 342 341 340 340 341 343 345 345 345 341 343 338 338 339 339 340 336 335 336 337 342 341 346 342 345 345 345 345 345 344 344 344 344 344 345 345 344 343 343 332 328 326 327 329 339 339 332 328 328 329 330 329 331 330 330 329 341 339 339 336 335 334 333 332 331 331 331 331 333 332 332 332
336 337 338 341 341 340 340 341 342 342 342 341 342 342 341 341 341 342 341 342 342 343 340 339 338 337 337 336 336 337 335 332 346 346 346 338 338 345 346 345 344 345 345 343 345 344 344 345 345 344 341 338 332 328 327 327 326 324 327 328 328 328 328 329 328 328 328 333 330 339 338 337 336 335 334 333 332 332 331 332 333 332 330 330 330
335 337 339 339 339 340 339 339 341 342 342 341 341 341 341 340 342 342 340 339 340 340 339 337 335 335 335 335 334 338 335 332 334 333 333 331 330 330 330 332 331 330 341 331 330 332 334 331 331 336 336 336 333 329 329 329 328 327 328 329 328 328 328 329 328 327 327 329 333 338 337 335 335 334 333 332 333 334 333 334 333 331 329 330 331
337 336 337 337 337 338 337 336 338 339 340 340 340 342 342 342 341 342 340 338 340 341 339 335 334 332 333 334 336 334 334 335 334 333 333 330 330 329 329 329 329 330 337 333 333 332 333 332 333 335 336 336 335 332 328 331 329 327 329 330 329 328 328 327 328 328 328 327 334 338 337 335 335 335 335 335 335 334 334 333 331 331 329 330 331
335 336 338 336 337 337 336 336 336 337 338 338 339 339 339 341 342 341 340 339 340 339 337 333 331 331 332 336 337 333 333 336 334 331 331 331 331 330 329 328 326 327 331 331 330 330 330 331 332 333 333 334 335 333 330 330 329 331 329 330 329 328 328 328 328 328 327 329 335 338 337 335 335 335 335 334 334 333 333 332 331 331 331 330 329
335 336 336 336 337 336 336 336 335 336 336 336 336 336 337 340 342 342 338 343 339 336 334 331 331 333 336 337 339 335 333 332 332 330 331 331 331 331 330 329 329 328 328 329 329 328 326 329 330 330 333 333 334 335 331 331 330 330 332 329 330 328 328 327 328 328 328 330 331 337 336 336 338 335 335 335 333 331 331 334 333 332 332 331 328
333 334 335 335 335 336 335 335 336 336 335 336 335 335 336 338 338 338 338 343 336 334 333 334 333 334 337 339 338 333 331 330 330 331 330 330 330 330 330 330 329 329 328 329 329 327 326 327 330 331 333 334 333 334 333 333 329 329 330 329 329 327 328 328 327 327 328 328 330 334 337 336 339 339 336 335 335 334 332 332 334 333 333 331 330
332 333 333 334 334 335 335 335 335 336 335 335 333 334 335 336 336 337 339 340 334 334 334 334 332 334 334 339 338 333 331 331 330 330 330 330 329 329 330 329 329 329 328 327 328 328 328 326 327 329 333 334 335 335 335 333 332 331 329 328 328 328 328 328 327 328 328 329 330 333 337 337 339 338 338 336 336 335 335 334 334 333 333 332 329
332 331 332 334 336 334 333 335 336 338 335 334 333 333 334 334 335 336 338 335 335 335 334 333 334 334 335 336 336 334 331 331 330 330 329 329 328 328 329 328 329 329 330 330 326 327 327 327 328 328 331 333 335 335 334 334 333 333 330 329 328 328 327 328 328 328 328 328 328 330 335 337 337 338 338 338 337 336 333 334 333 332 331 331 330
331 331 332 335 335 332 333 334 335 336 335 334 335 333 333 335 335 335 336 335 335 334 334 333 336 334 335 334 334 333 333 331 331 330 329 329 329 329 329 328 330 330 331 330 330 330 328 328 328 328 328 330 332 333 333 333 332 329 327 329 328 327 327 327 327 327 327 327 328 329 329 332 337 338 337 338 338 337 333 334 333 332 332 330 331
332 332 335 336 334 332 333 333 335 335 333 333 333 333 333 335 335 334 335 336 335 334 334 334 334 333 334 334 334 335 335 332 331 332 334 330 329 330 330 331 331 331 330 331 331 330 329 328 328 329 328 329 331 332 335 333 330 328 329 329 328 327 327 327 327 327 327 328 329 328 328 330 330 337 338 339 338 338 334 334 331 332 332 330 331
334 335 336 335 335 334 334 333 333 332 333 332 332 332 333 333 333 332 337 335 333 333 334 334 334 333 334 334 335 335 336 334 332 331 331 330 330 330 330 331 331 330 330 330 331 330 330 329 328 327 332 330 330 330 331 332 328 328 328 328 328 328 327 327 327 327 328 329 329 327 327 328 328 329 333 338 338 338 338 335 332 333 332 331 330
335 335 335 336 335 334 335 333 334 332 335 332 333 332 331 334 333 333 334 332 333 332 332 333 332 334 335 334 334 335 335 334 333 333 332 332 330 330 330 332 332 330 331 331 331 331 330 330 329 327 326 327 329 330 332 331 328 328 327 328 328 328 327 327 327 328 328 329 329 329 328 328 327 328 332 330 338 338 338 336 332 333 332 332 330
335 335 336 336 335 335 334 331 331 331 330 331 330 331 333 333 333 336 331 332 333 332 332 333 334 332 334 334 333 334 335 333 333 332 330 333 334 333 332 331 332 332 332 331 331 330 330 330 330 328 326 326 328 329 330 330 327 327 327 327 328 328 327 327 327 328 329 328 328 328 328 327 327 327 333 328 329 333 337 335 336 335 332 332 330
335 335 335 335 335 336 335 331 330 330 330 330 329 329 332 332 333 336 334 333 332 332 333 335 335 335 333 333 334 335 335 334 333 333 332 333 334 334 333 331 332 333 332 330 330 330 328 330 328 330 328 326 327 327 327 325 327 327 327 327 328 329 327 327 327 327 328 327 327 328 328 327 328 335 330 326 326 327 336 335 336 335 334 332 330
336 335 335 335 335 335 335 333 330 329 329 329 329 330 332 332 332 334 338 333 333 333 334 336 336 336 334 334 334 335 335 333 332 333 333 335 335 335 334 332 332 333 331 328 329 329 328 328 327 328 329 328 326 324 324 325 326 326 326 326 327 328 328 329 329 331 328 327 327 328 328 327 327 328 328 326 325 327 329 333 335 335 335 333 331
335 334 334 334 335 334 335 335 331 328 329 329 330 333 333 331 328 331 330 330 330 333 332 333 335 334 334 335 334 335 336 334 333 332 333 335 336 336 335 334 333 331 330 328 328 327 328 328 327 326 328 328 327 326 325 326 327 326 325 326 328 327 327 328 329 329 328 327 327 329 328 327 326 327 327 325 325 326 327 327 327 323 330 333 332
334 334 333 333 333 334 335 333 329 327 328 329 332 334 334 331 329 328 329 329 330 333 332 332 330 333 335 335 335 335 335 335 332 331 332 334 335 336 336 335 334 332 331 329 327 327 329 330 328 327 326 326 326 327 328 325 325 325 325 324 325 326 326 327 327 328 329 328 327 328 327 326 326 327 327 326 325 326 326 326 326 321 324 331 332
334 333 332 332 333 333 333 331 328 327 329 331 334 335 333 332 331 330 329 328 329 331 331 329 330 331 332 335 336 336 334 333 334 331 331 334 335 335 334 334 333 333 332 330 328 327 327 329 329 327 326 323 323 325 325 326 323 322 324 324 324 326 328 328 326 327 328 328 327 327 327 326 326 326 326 325 325 325 326 326 325 321 322 325 328
332 333 332 332 332 333 333 331 329 327 330 334 336 335 332 332 326 327 327 326 327 329 329 329 330 333 332 333 335 335 334 333 335 332 332 330 330 332 332 331 330 333 334 333 331 331 330 329 327 323 323 324 322 324 325 325 321 320 319 318 320 323 326 327 327 327 327 327 328 328 328 327 326 326 327 325 324 324 326 326 324 321 321 323 323
332 332 333 332 331 331 328 327 327 327 329 335 335 333 331 329 328 327 328 327 328 330 330 330 333 332 331 332 334 333 333 333 332 332 332 329 329 328 330 329 329 332 333 333 333 331 328 326 326 326 322 322 322 323 324 325 320 320 320 318 314 314 319 324 327 327 327 328 328 328 328 327 327 327 326 325 324 324 324 324 323 321 321 323 322
332 332 332 331 330 327 324 325 327 326 328 332 332 330 330 331 330 329 329 328 329 333 329 328 329 330 332 331 330 331 332 332 331 332 332 330 328 329 330 328 329 331 332 332 332 331 332 331 330 330 329 326 325 323 325 325 322 319 314 317 316 314 312 316 321 325 328 327 327 328 328 327 327 327 327 325 324 324 324 324 323 321 321 322 321
330 330 329 329 329 325 326 327 327 326 327 331 330 330 332 332 332 330 327 325 324 323 325 326 326 328 332 331 333 331 331 333 332 332 333 332 329 329 328 329 328 330 332 332 332 331 330 330 330 330 329 328 326 325 324 325 324 325 320 314 312 312 314 315 319 321 327 326 326 327 328 327 327 328 327 325 324 324 324 323 323 322 321 322 321
327 327 327 328 328 328 329 329 330 331 331 329 330 331 331 330 328 325 321 319 321 323 323 325 327 327 327 328 331 331 331 331 332 332 332 331 329 329 329 329 328 328 330 331 332 331 329 328 328 330 330 330 328 326 324 325 326 325 325 323 321 316 314 316 318 314 326 327 326 327 327 327 327 328 328 326 324 323 324 323 323 322 321 322 322
327 328 329 330 331 331 331 330 330 329 330 329 328 328 326 324 324 323 323 323 321 321 321 323 325 327 327 328 330 329 330 330 332 330 329 329 330 328 329 329 329 329 330 330 330 331 331 330 329 329 330 331 329 325 326 325 324 326 326 325 325 324 322 319 316 316 315 321 325 325 325 327 327 327 328 327 326 323 323 324 323 322 322 322 322
328 329 329 329 329 329 329 327 327 328 328 328 327 327 325 321 321 322 323 322 322 323 325 326 327 329 328 326 327 328 328 330 331 330 329 329 330 329 329 329 329 330 332 331 330 331 331 331 331 331 331 331 330 327 326 327 324 324 326 324 324 325 324 323 322 319 316 315 318 324 326 326 326 326 328 328 327 324 323 324 324 323 322 322 323
328 327 328 328 328 327 326 326 325 324 324 327 327 326 328 325 325 323 323 323 324 325 326 326 327 328 327 326 327 328 329 329 328 330 329 330 330 329 328 327 328 329 331 330 330 331 332 332 331 330 330 331 331 331 328 327 327 326 325 324 325 324 323 323 323 321 317 316 316 318 319 325 326 326 326 328 329 328 325 325 325 325 323 322 323
325 326 327 327 325 324 324 324 323 323 324 325 325 325 325 326 325 323 323 323 325 325 325 325 326 326 326 327 329 331 332 333 333 332 329 330 329 329 328 328 328 328 329 328 328 329 330 330 331 330 331 331 332 330 328 329 329 328 327 326 323 323 323 321 321 321 320 320 316 317 319 319 318 323 326 326 328 328 328 326 326 326 324 323 323
324 324 325 325 324 323 322 322 322 324 326 327 327 326 326 326 325 324 323 323 323 323 323 323 324 325 326 328 329 330 331 332 332 333 332 331 329 329 327 327 327 329 329 328 327 328 329 330 331 331 330 330 330 331 330 329 329 328 328 327 326 324 323 320 320 321 320 318 317 318 320 321 321 320 323 326 327 328 329 328 326 326 325 324 324
Wind_Speed
8 11 9 13 15 17 18 18 18 17 16 16 15 14 13 14 17 17 17 18 18 17 17 17 17 18 16 16 17 16 15 15 14 14 14 14 14 14 14 14 15 15 15 15 16 15 15 14 14 14 13 14 14 13 13 13 12 13 14 14 14 15 15 15 15 15 15 14 13 13 13 14 15 15 15 16 15 15 16 15 13 9 6 10 14
12 10 9 11 16 17 18 18 18 17 16 15 14 13 13 14 16 17 17 17 17 17 17 17 17 17 17 17 17 17 15 15 15 14 14 14 14 15 14 14 15 15 15 15 15 15 14 14 13 13 13 13 13 13 12 13 13 12 14 14 15 15 15 15 15 15 15 15 14 14 14 14 14 15 16 15 14 14 14 14 14 6 4 13 14
11 10 9 11 17 18 18 18 17 17 16 15 14 14 13 14 15 17 17 17 17 16 16 16 17 17 17 17 17 17 16 15 15 14 13 14 15 15 15 14 14 15 15 15 14 14 13 13 12 13 13 13 13 12 12 12 14 13 13 14 15 15 14 14 15 15 14 14 14 14 14 14 13 14 17 15 15 15 15 14 13 12 8 14 13
13 9 9 13 18 17 17 18 17 17 16 15 14 14 14 14 15 16 16 16 16 16 15 16 16 17 17 18 17 17 16 15 14 14 14 14 15 15 15 15 15 15 15 14 14 13 12 11 11 12 12 12 12 12 12 13 14 13 13 13 14 14 13 13 13 13 13 13 12 10 5 5 7 15 17 15 15 16 15 15 14 13 14 13 14
13 11 9 10 11 16 18 18 18 16 15 14 13 14 14 15 15 15 16 15 15 14 15 15 16 17 16 16 17 17 16 15 14 14 14 14 14 15 15 15 15 15 14 14 14 13 12 10 10 11 11 11 11 11 11 13 14 12 12 12 12 12 12 13 12 13 13 12 10 7 3 3 4 15 15 14 14 15 14 14 14 14 14 15 14
12 11 10 9 10 13 18 18 18 17 16 15 14 14 15 15 15 16 16 15 14 14 14 15 15 17 18 17 17 17 16 16 15 15 15 14 13 14 15 15 15 14 14 13 13 12 11 10 9 10 11 11 11 10 10 11 12 11 10 9 8 8 9 11 11 12 12 11 9 4 4 3 3 7 16 14 13 13 13 13 13 13 14 15 14
14 10 10 9 9 12 18 18 17 17 16 15 14 14 15 15 15 16 15 14 13 13 14 14 15 16 17 17 16 16 16 16 16 15 14 13 12 13 15 14 14 13 12 12 12 11 10 9 9 10 10 10 10 10 10 10 10 10 9 8 7 5 3 5 8 10 11 7 5 4 5 4 3 3 14 12 12 13 12 12 13 14 14 14 13
11 10 10 9 8 14 18 18 17 16 16 15 15 15 16 16 16 15 15 14 14 13 14 14 15 16 16 16 16 16 16 16 16 15 14 13 12 12 12 13 13 12 12 11 11 10 9 7 7 9 10 9 9 9 9 9 10 9 8 7 6 4 1 4 8 10 10 5 4 4 5 4 4 4 10 11 12 13 11 12 13 14 13 13 12
11 11 11 10 10 19 17 17 17 17 16 16 16 16 16 16 16 16 15 14 14 14 14 14 14 15 15 16 16 16 16 16 15 15 13 13 13 12 12 12 12 11 10 9 9 9 9 7 5 7 9 9 9 9 9 9 9 9 8 8 8 7 3 10 11 11 6 4 4 4 4 3 4 3 7 12 13 13 11 10 10 13 13 12 12
11 10 10 8 10 18 18 17 17 17 17 16 16 17 17 16 15 15 15 15 14 14 14 14 14 14 15 16 16 16 16 15 15 14 14 13 12 12 11 11 11 11 10 9 9 8 7 6 6 6 8 9 9 9 9 9 9 8 8 9 9 10 13 15 14 8 5 4 4 4 4 6 3 3 7 10 12 12 11 10 8 9 10 12 13
12 10 9 9 13 17 17 17 17 17 18 17 17 18 17 15 15 14 14 14 14 13 12 13 14 14 14 15 15 16 16 15 14 13 13 12 12 11 11 10 10 10 10 10 9 8 7 7 6 7 7 8 9 8 8 8 8 8 8 9 9 11 13 14 10 5 4 5 4 4 5 7 3 3 9 11 11 11 12 11 10 12 11 13 14
12 10 10 9 16 17 17 17 18 17 18 18 18 18 17 16 15 15 14 14 14 13 12 11 11 13 15 15 15 14 15 15 14 13 13 12 11 11 10 10 9 10 10 9 9 7 6 6 6 6 7 8 8 8 8 8 8 8 8 9 10 10 11 12 6 5 4 4 4 4 4 3 3 6 11 10 10 12 12 11 11 11 11 11 13
12 11 10 10 11 16 16 16 17 17 18 18 18 18 18 16 16 15 14 13 12 13 13 11 11 10 12 14 14 14 14 14 13 12 12 11 11 10 10 9 10 9 9 9 9 8 7 6 6 6 6 7 8 8 8 8 8 8 8 9 9 11 11 11 5 5 4 4 4 4 3 2 3 9 11 10 10 11 11 10 10 10 10 10 11
12 11 11 10 9 17 16 15 15 17 17 17 17 17 18 17 16 15 13 14 13 12 10 11 10 10 10 12 13 14 13 13 13 12 12 11 11 10 10 10 9 9 9 8 9 8 7 6 6 6 6 7 8 8 7 8 8 7 9 9 9 12 12 8 6 4 4 4 3 3 2 1 2 9 11 11 10 10 9 10 10 10 10 11 12
15 13 11 10 9 10 17 14 14 15 15 15 16 16 16 15 15 14 14 14 14 12 12 12 12 12 12 14 14 13 12 12 12 11 11 11 10 10 9 9 9 8 7 7 8 8 7 6 6 5 5 6 6 7 7 8 7 7 8 8 8 12 10 5 5 4 4 3 3 3 2 2 7 8 11 11 10 11 11 12 13 13 12 12 12
14 12 10 8 7 8 8 13 14 14 14 16 15 15 15 15 15 14 14 14 13 12 12 12 12 12 12 13 13 12 12 11 10 10 10 10 10 10 9 9 9 8 6 5 6 6 6 6 5 5 5 5 5 6 7 7 7 8 7 6 9 12 11 6 5 4 4 4 2 1 1 3 11 9 10 10 11 11 11 12 11 11 12 12 12
10 10 9 8 7 6 6 7 10 15 13 13 14 15 14 14 14 14 14 14 13 13 13 12 12 12 13 13 12 12 12 11 11 10 10 9 10 9 9 8 8 8 6 4 3 4 5 5 5 5 5 4 5 6 6 8 8 7 6 5 12 12 11 7 5 4 4 3 2 2 1 2 8 9 11 11 11 11 11 11 11 10 10 11 11
9 9 8 8 7 6 6 6 8 8 7 11 14 16 15 15 15 15 15 13 13 13 13 12 12 13 13 12 12 12 11 10 9 9 9 8 9 9 8 8 7 6 5 4 2 2 3 4 4 5 4 4 5 6 7 8 8 7 6 11 14 13 11 8 4 4 3 3 3 1 1 5 7 8 9 9 9 10 10 10 9 9 9 9 9
10 9 9 10 9 9 8 7 7 7 7 6 6 10 15 15 15 15 15 12 13 13 13 12 13 13 13 12 11 11 10 10 9 8 8 7 8 8 8 7 7 6 6 4 2 2 2 2 4 4 4 5 6 6 7 8 8 9 8 12 13 13 13 6 4 3 3 3 3 2 1 5 6 8 8 9 9 9 9 8 8 8 7 7 7
9 10 10 8 8 8 7 6 6 6 6 6 6 7 12 14 14 14 14 13 13 13 12 11 12 12 11 10 9 6 7 6 9 6 8 7 6 5 7 7 7 6 4 4 3 2 2 4 3 4 4 5 6 5 7 8 9 8 8 10 12 12 6 5 4 3 4 3 2 2 6 9 8 7 7 6 6 7 7 8 7 7 7 6 5
5 7 7 8 9 9 8 6 6 5 6 6 6 6 9 14 11 13 12 12 12 12 12 12 10 9 8 8 5 3 3 2 3 3 6 3 5 6 6 6 6 6 4 3 2 2 2 3 4 4 4 4 4 6 7 10 8 7 8 8 9 5 4 4 4 3 3 2 3 4 9 9 9 6 5 4 4 5 6 5 6 6 5 5 6
8 8 7 6 6 5 7 6 5 5 4 4 4 5 5 9 4 4 5 6 8 9 8 4 6 3 8 5 3 2 2 2 2 3 2 2 3 5 6 5 5 5 4 3 3 2 3 3 5 6 5 5 5 3 5 8 8 7 6 10 6 5 4 4 4 4 3 2 3 5 11 9 6 5 5 5 4 5 5 5 4 4 5 5 5
7 6 5 4 3 3 3 4 5 5 3 2 2 2 2 2 3 3 3 5 4 4 3 3 3 3 3 3 2 2 2 1 1 1 2 3 2 4 4 5 5 5 4 3 2 1 2 3 4 6 6 7 3 2 4 5 4 6 6 5 5 4 3 3 3 4 3 2 2 7 8 6 6 4 5 4 4 3 3 3 3 5 5 5 5
8 7 6 4 3 3 4 4 6 6 4 3 2 2 3 4 3 3 3 3 2 4 3 4 3 3 3 3 2 2 2 1 3 5 4 1 1 2 3 4 4 4 4 2 2 1 1 3 3 5 4 3 3 3 3 5 5 3 5 5 5 4 4 4 3 3 3 2 2 6 7 7 6 6 5 5 4 5 3 3 4 4 4 4 4
7 6 5 5 4 5 5 5 5 5 4 4 3 3 4 4 3 3 3 3 4 4 4 3 3 3 3 3 2 1 2 1 1 1 2 2 2 1 1 1 1 1 3 1 1 1 1 2 2 2 1 2 3 3 3 4 3 3 5 5 5 4 3 3 4 4 3 2 2 8 7 7 7 6 6 5 4 6 5 5 4 3 3 4 4
5 7 8 6 6 6 6 5 5 4 4 3 4 4 5 3 3 3 4 4 4 4 4 2 3 3 3 3 2 2 2 2 1 1 2 2 2 2 2 1 1 1 1 1 1 1 2 2 2 2 3 2 1 2 2 1 4 3 4 5 5 5 5 4 4 4 3 2 3 8 7 7 7 8 8 7 6 6 5 4 2 4 3 3 4
7 6 6 5 5 5 6 6 6 5 4 3 4 4 4 4 4 4 4 3 4 4 3 2 2 3 2 2 3 2 2 2 2 1 2 2 3 2 2 1 1 1 0 1 1 1 2 2 3 3 3 2 2 1 2 2 1 4 3 4 5 5 5 5 5 4 4 4 3 10 7 7 8 8 6 6 7 6 5 5 5 3 4 4 3
7 7 6 6 5 6 6 6 6 5 4 4 5 4 4 4 4 3 4 4 4 3 2 2 2 3 3 3 3 4 4 3 3 2 2 2 2 2 1 1 2 2 2 1 1 1 2 3 3 3 3 3 2 2 2 2 3 0 3 3 5 5 5 5 5 3 4 4 3 8 9 9 6 6 6 6 6 5 4 6 4 6 6 4 4
8 7 6 6 5 5 5 6 6 6 4 5 5 4 4 4 4 4 4 5 4 4 4 4 3 4 3 4 3 2 2 2 3 3 1 2 2 2 2 2 2 2 2 2 2 2 2 3 3 3 4 4 3 3 2 3 2 2 1 3 4 5 5 5 5 4 4 4 4 6 11 10 5 7 8 6 7 7 5 5 6 5 5 5 4
6 6 5 4 4 5 5 5 5 6 5 5 4 5 4 5 4 5 5 4 4 5 4 4 3 3 3 2 2 2 3 3 3 2 3 3 3 3 3 2 2 2 2 3 3 2 3 2 3 3 3 4 4 4 1 3 3 2 1 2 4 5 6 6 6 6 5 5 5 5 11 10 5 4 6 8 8 8 7 6 6 5 5 4 3
6 6 5 4 4 4 4 5 6 5 5 5 4 4 4 4 4 4 4 5 5 5 4 3 4 3 3 2 2 1 2 2 3 3 3 3 2 3 3 2 2 2 2 3 2 3 3 4 3 3 3 4 4 3 2 3 3 2 1 2 4 4 5 5 5 5 5 5 5 4 6 12 7 7 8 8 9 9 6 8 6 4 4 5 5
7 6 5 5 5 4 4 5 5 6 5 5 4 4 3 4 4 4 4 4 4 4 4 4 4 3 2 2 2 2 2 3 3 3 3 3 3 3 3 2 4 3 3 3 3 3 4 4 3 3 3 3 4 3 2 3 1 1 2 2 3 4 4 5 4 4 3 4 5 4 3 4 8 8 7 6 8 8 6 7 6 5 6 5 4
3 5 6 6 6 4 5 4 5 5 5 5 5 4 4 3 4 4 3 3 4 4 4 4 3 2 2 2 3 3 3 4 4 3 3 3 3 3 3 4 4 3 2 3 3 3 3 3 3 2 2 2 2 3 1 1 1 2 2 2 4 4 4 4 5 5 5 5 4 4 3 3 4 7 6 7 7 8 7 8 4 6 6 6 7
6 5 6 6 5 4 4 4 4 5 5 4 4 4 4 3 2 2 3 3 3 4 3 2 2 2 3 3 3 4 4 4 3 3 2 2 3 3 3 4 3 3 3 3 3 4 4 5 4 3 3 3 3 2 1 0 3 1 0 0 3 5 6 6 6 6 6 6 3 2 2 2 3 3 3 10 9 8 5 7 6 7 7 7 7
5 6 7 7 6 4 4 4 4 4 4 4 4 4 3 3 3 3 2 2 2 3 3 3 3 4 4 4 3 3 3 3 3 3 3 3 3 4 4 5 3 3 3 3 4 4 4 5 3 4 3 3 3 2 2 1 3 3 1 2 5 5 4 5 5 5 6 5 5 5 4 4 3 3 4 4 8 10 5 8 7 9 8 8 7
7 7 7 7 7 5 4 4 3 4 3 4 3 3 3 3 2 3 2 1 2 3 4 4 4 3 3 3 3 3 3 3 3 3 3 3 4 4 5 4 4 3 4 3 3 4 4 4 4 2 3 4 2 2 1 2 1 2 0 1 2 3 5 5 6 6 6 5 6 5 4 4 3 4 4 5 5 4 7 9 7 10 8 10 9
7 7 7 7 7 5 4 4 4 3 3 3 3 2 3 2 2 2 3 3 3 3 3 3 3 3 4 4 4 4 4 3 3 3 4 4 4 4 4 4 3 4 4 3 3 3 3 3 1 4 2 3 5 2 2 1 4 4 3 1 1 4 4 6 6 6 5 6 6 5 4 4 3 5 5 5 3 3 7 10 5 9 8 9 8
7 6 6 7 7 5 4 3 3 3 3 3 3 3 3 3 3 3 4 4 3 3 3 3 4 4 4 4 4 4 4 3 3 3 4 4 4 4 4 5 4 4 4 3 3 2 2 2 1 3 3 4 4 2 1 1 2 2 2 2 2 3 6 6 6 5 5 6 5 6 6 5 4 5 5 5 4 4 4 7 7 8 9 8 9
5 7 7 5 5 4 4 3 3 3 3 2 2 3 3 3 3 3 3 2 1 2 3 4 4 3 4 4 3 4 4 3 3 3 4 4 4 4 4 4 4 3 3 2 3 3 3 3 3 3 3 5 3 2 3 3 3 2 3 2 3 3 4 3 3 4 5 6 6 6 5 6 5 5 5 5 4 4 5 4 4 4 6 11 8
6 7 7 6 5 5 4 2 2 2 2 2 2 3 3 2 1 2 1 0 0 1 1 2 2 4 4 3 4 4 4 4 3 3 4 4 4 4 4 3 3 3 3 3 4 4 4 3 3 6 5 2 2 3 3 4 2 2 0 2 3 2 4 3 4 5 5 5 6 5 4 2 3 5 5 5 5 4 5 4 4 5 5 8 10
7 7 7 7 7 7 6 5 3 2 2 2 2 2 2 1 2 1 1 2 2 1 2 2 2 3 3 3 4 5 4 4 4 4 5 5 4 3 3 2 2 3 3 4 4 3 3 4 4 4 6 5 4 3 3 5 4 0 1 1 3 3 4 4 5 4 5 4 3 3 2 3 4 5 5 4 5 5 5 5 5 5 5 4 7
8 7 8 6 4 5 5 3 2 1 2 3 2 3 2 2 1 2 2 2 1 1 3 1 2 2 3 3 4 4 4 5 4 4 4 4 3 3 3 3 3 3 4 4 3 3 2 2 1 1 2 3 3 4 4 5 2 4 3 2 3 3 5 5 6 5 4 3 5 7 7 7 9 8 5 5 5 5 5 5 4 5 4 5 5
8 7 6 5 4 4 2 2 2 3 2 2 2 1 1 1 1 2 3 2 1 2 2 2 1 1 2 4 4 4 4 4 4 3 3 3 3 3 4 4 4 4 3 4 4 4 3 3 4 4 2 3 3 2 7 7 4 2 1 0 2 2 2 5 5 6 5 6 6 7 7 8 9 7 5 6 6 6 5 5 5 5 4 5 5
7 6 5 5 4 3 3 3 3 2 2 1 1 0 1 0 0 1 1 0 0 0 0 0 1 2 3 1 3 3 3 3 3 3 3 3 3 4 4 3 4 3 4 4 4 5 4 4 4 5 4 4 3 3 7 8 5 6 1 5 2 2 3 6 7 6 7 7 8 8 7 8 7 6 5 7 7 6 6 5 7 6 6 5 5
5 5 5 4 3 3 3 3 3 2 1 1 1 2 2 1 1 1 2 1 1 4 3 4 3 2 3 4 4 1 3 4 3 4 3 4 3 3 3 4 4 4 4 4 4 5 5 5 5 5 5 5 5 3 4 7 8 7 5 2 1 1 5 2 3 4 6 7 8 7 8 7 7 7 8 8 6 6 6 6 6 6 6 6 6
4 4 3 4 4 4 4 4 3 2 3 2 1 2 2 2 2 3 3 3 3 5 5 4 6 5 4 3 3 2 2 3 4 4 3 3 3 3 3 4 4 4 4 4 5 4 5 5 5 5 6 6 6 5 5 4 7 8 9 7 4 3 2 1 2 4 4 7 6 7 7 7 7 8 8 8 8 7 7 8 7 7 7 7 6
4 4 4 4 5 4 4 4 4 4 3 3 2 3 4 3 2 1 1 1 1 3 2 2 3 5 3 4 4 2 2 3 4 3 2 2 2 2 3 3 4 4 4 4 5 5 5 5 5 5 6 5 5 7 7 5 3 6 7 9 7 4 1 2 5 1 2 2 5 7 7 8 7 8 8 9 9 7 7 7 8 7 7 7 7
5 5 5 5 6 6 6 5 4 5 3 3 5 4 5 3 3 3 2 2 1 2 4 4 3 3 4 3 3 3 3 3 4 3 3 2 2 3 3 3 4 4 5 5 5 5 5 5 5 6 5 5 6 7 8 6 7 5 6 8 8 9 8 4 2 4 3 3 4 4 5 7 8 8 9 8 9 9 9 8 8 9 7 7 7
6 6 5 6 6 6 6 6 6 5 4 5 5 5 4 4 4 3 4 3 1 2 2 2 4 4 4 5 4 3 3 3 3 3 3 3 3 3 3 3 4 5 4 5 5 5 6 5 4 4 5 6 6 7 7 7 6 7 4 6 7 8 8 9 9 3 5 5 5 6 6 6 7 8 8 9 9 9 9 10 9 8 7 7 8
7 8 6 6 6 5 6 7 5 5 3 5 5 5 4 4 5 4 5 4 4 4 4 5 5 4 5 5 5 5 5 5 5 4 4 3 4 4 4 5 5 5 4 5 4 5 5 6 7 7 6 7 7 7 8 8 7 7 8 7 7 6 6 5 8 8 6 6 7 6 8 9 10 9 9 10 10 9 9 7 7 9 7 7 7
8 8 7 7 6 6 5 7 4 4 4 5 6 5 5 4 4 4 4 4 4 4 5 6 5 5 5 5 6 5 5 5 5 6 5 5 5 3 4 5 4 4 4 4 5 5 6 6 6 6 7 8 7 8 9 9 9 8 9 8 9 9 9 9 8 9 10 7 7 8 5 7 10 8 10 11 10 9 8 7 9 8 10 9 8
Wind_Direction
160 147 137 130 123 116 111 108 110 113 114 115 114 114 114 112 112 110 108 107 106 107 108 108 109 108 109 109 108 109 109 107 105 104 103 103 100 98 98 97 98 97 94 94 93 90 88 89 91 90 90 90 89 87 86 85 86 86 86 85 82 81 77 75 76 74 71 70 71 76 81 87 86 84 80 80 78 75 71 68 65 64 61 63 65
152 144 132 129 123 118 113 112 114 117 118 117 116 117 117 114 114 112 111 110 109 110 110 110 110 110 109 108 109 108 107 107 106 103 104 103 102 99 98 98 97 94 94 92 91 93 93 92 92 94 94 91 88 85 84 85 85 88 88 90 86 80 78 76 76 73 71 69 69 71 78 83 87 88 87 84 80 78 76 74 69 58 55 71 69
132 135 129 131 122 120 116 115 118 120 120 119 121 121 120 117 115 114 113 113 112 112 112 112 112 110 109 107 106 105 105 106 106 106 106 105 104 103 100 98 97 98 95 92 91 90 89 89 93 95 94 89 87 86 88 88 82 82 85 83 81 78 77 76 75 73 68 66 66 66 69 74 78 90 89 84 85 82 80 77 73 70 71 71 68
132 129 130 130 125 121 118 119 122 123 123 125 125 124 124 122 119 116 115 113 113 114 113 112 111 109 107 106 105 105 106 108 109 109 108 109 108 106 105 103 101 96 93 91 89 88 88 89 90 94 92 90 87 88 87 82 79 81 82 76 81 80 76 76 76 76 73 69 66 65 62 61 79 85 80 79 80 83 77 77 80 80 75 73 72
131 132 130 126 125 123 123 124 126 125 125 126 129 129 127 125 121 117 116 115 114 115 115 113 111 110 105 105 106 107 108 109 111 111 111 109 108 108 108 105 101 99 98 96 94 91 88 88 92 97 96 91 86 81 83 83 82 82 82 77 75 73 75 76 76 77 76 70 62 50 42 60 76 84 83 79 76 75 81 87 83 80 78 74 74
131 129 126 130 129 129 128 129 130 129 132 135 134 132 129 125 121 118 118 116 116 117 116 113 111 111 112 111 112 114 115 115 115 115 113 107 110 113 109 106 105 104 101 99 96 93 92 90 89 96 93 89 84 82 82 82 84 81 76 69 63 65 79 68 70 76 70 61 53 46 42 44 50 77 83 82 82 83 82 85 87 85 82 79 77
128 129 130 132 133 136 132 133 134 135 138 138 138 135 130 124 119 118 119 119 119 120 119 115 114 115 116 116 117 118 119 119 116 113 112 114 114 109 107 107 105 103 104 104 100 96 93 93 94 100 95 90 83 80 78 74 73 72 74 64 47 48 65 61 85 85 76 60 53 49 47 47 46 59 83 83 83 89 86 86 89 86 83 86 82
124 130 133 135 139 140 136 136 139 141 142 143 140 135 129 122 120 121 124 124 127 128 123 121 119 121 122 122 121 121 120 120 118 115 115 113 106 100 101 102 102 101 103 106 106 106 106 101 95 93 101 97 90 82 70 66 61 57 52 43 27 9 234 158 120 100 84 70 61 58 53 45 51 48 85 93 92 89 91 94 88 88 90 89 88
129 132 135 138 142 142 140 142 144 147 147 145 139 133 127 122 122 127 130 131 133 133 130 125 124 126 127 125 125 124 122 119 119 116 112 109 106 104 105 104 103 99 97 100 106 112 113 110 102 91 94 96 85 72 66 62 58 52 43 30 18 27 128 149 137 104 87 79 63 64 62 57 61 59 87 89 86 87 81 63 79 89 93 95 93
128 130 135 142 144 145 145 147 149 150 148 144 138 132 128 126 129 134 137 138 139 139 136 132 131 130 130 128 125 124 124 122 119 118 117 115 112 111 109 110 109 109 111 112 113 112 114 116 112 97 84 81 77 75 72 64 59 51 38 27 36 71 93 115 116 100 93 87 78 79 91 82 68 83 101 99 100 101 101 100 95 95 97 99 101
131 133 137 142 149 149 151 152 153 151 147 141 136 133 132 133 137 141 142 142 141 142 140 139 135 134 132 132 129 127 126 125 124 122 119 116 113 111 112 110 113 115 116 116 115 112 109 109 100 92 87 86 83 82 77 71 64 54 37 30 57 82 94 100 96 89 86 76 62 52 71 80 82 95 100 94 96 103 102 94 96 95 91 90 90
133 135 140 148 153 154 156 155 154 150 144 139 136 137 139 142 144 145 145 145 145 145 144 140 141 140 137 134 130 129 131 131 128 123 120 115 113 113 111 110 113 113 113 112 111 115 112 110 104 101 95 89 87 85 82 76 68 57 42 43 75 90 94 96 90 87 79 78 79 73 60 62 79 97 106 108 105 100 100 100 95 93 94 89 86
138 143 148 154 154 160 157 157 153 146 141 138 139 142 146 148 149 148 147 146 147 149 148 143 143 145 142 139 136 136 134 131 129 125 123 118 114 116 117 116 114 113 111 113 110 106 106 104 102 104 100 95 91 90 86 80 70 60 50 50 83 102 99 93 84 82 78 77 78 79 82 67 98 115 107 108 102 101 102 106 108 105 100 97 91
144 149 155 156 158 160 160 156 149 144 141 140 142 147 152 154 154 152 148 150 150 148 143 141 141 139 139 142 140 135 132 133 132 129 125 121 117 116 119 119 118 113 115 119 118 115 112 111 108 101 93 91 94 90 87 78 71 64 57 57 80 110 104 96 93 89 88 87 92 94 75 60 82 117 117 117 112 101 92 92 103 108 106 98 93
148 156 155 156 159 158 160 151 144 142 142 142 144 152 157 157 157 154 153 155 151 144 143 142 141 138 136 136 134 130 134 136 134 132 126 121 118 118 120 120 118 118 114 113 116 115 111 103 99 93 88 85 88 87 79 74 72 65 58 62 85 118 113 105 99 97 93 88 80 77 54 76 97 109 119 118 119 112 103 91 90 94 92 91 92
149 152 150 149 151 153 153 153 146 146 144 144 147 154 159 159 158 157 158 156 151 144 141 140 138 140 139 137 137 138 139 139 137 133 128 123 121 119 119 121 121 117 116 116 110 115 112 107 103 95 88 85 84 81 80 77 64 59 55 66 106 125 120 109 103 94 96 90 73 69 117 127 129 128 113 111 118 117 106 98 91 89 94 89 87
150 144 143 144 143 146 146 149 153 150 144 145 152 157 158 160 159 162 161 159 152 147 145 143 143 143 143 141 142 143 143 142 139 136 131 127 120 118 116 115 118 120 117 109 104 105 112 111 102 93 86 78 78 79 76 67 59 48 45 78 128 129 126 118 113 118 113 110 103 102 106 107 117 115 114 112 107 106 107 98 96 92 85 86 85
140 139 141 143 144 142 149 151 156 148 148 150 153 158 162 163 165 167 166 160 154 153 149 144 144 144 146 144 146 147 145 141 136 136 133 123 120 118 113 109 108 112 119 116 87 76 91 96 88 79 68 59 63 67 67 64 57 43 43 128 131 130 127 119 120 120 117 105 101 101 95 133 130 122 120 118 113 111 104 99 101 102 96 94 92
143 146 153 159 160 161 162 161 154 143 145 148 151 161 164 168 168 168 167 160 160 159 152 146 146 145 147 148 151 150 145 142 134 134 123 121 124 116 112 108 103 103 99 92 97 48 7 51 74 68 51 43 43 47 56 67 62 48 71 125 124 129 129 121 122 113 103 106 108 91 221 122 102 110 113 118 120 116 112 112 108 103 104 101 104
153 160 166 166 162 161 160 156 148 148 146 147 152 160 167 168 169 169 169 167 167 163 150 146 145 145 145 146 153 149 146 146 142 134 129 124 111 109 119 114 107 93 93 91 67 28 351 353 27 41 43 40 40 34 49 66 71 67 65 116 128 125 118 124 122 119 120 135 128 135 124 116 125 136 132 131 133 128 121 122 122 112 110 105 104
158 168 169 170 170 169 161 152 149 144 144 146 154 162 170 171 173 172 167 169 168 164 156 153 147 148 142 143 132 93 92 106 123 127 143 124 129 127 124 119 114 106 92 87 84 17 348 358 345 358 12 28 35 41 53 63 77 81 98 100 108 100 122 120 127 133 145 143 136 145 140 145 156 150 140 140 144 141 135 134 136 131 126 121 111
170 174 182 175 165 165 161 141 131 135 142 152 164 166 169 171 155 157 151 160 165 165 161 148 144 115 146 134 89 115 81 74 101 137 91 143 144 143 140 131 127 119 104 87 77 4 351 336 339 338 347 5 23 46 65 68 74 106 120 126 115 125 123 133 135 149 144 153 155 166 161 170 158 152 149 147 143 142 163 162 142 144 138 129 124
175 177 176 173 160 139 122 120 123 133 140 153 156 144 128 90 101 96 116 144 151 137 105 120 70 89 84 93 101 77 102 87 121 154 142 151 144 158 159 154 142 146 139 132 117 67 335 331 324 332 338 350 13 29 80 86 77 85 98 115 120 121 126 127 140 148 151 179 179 188 172 146 155 148 144 164 149 151 165 183 142 128 134 130 124
179 174 167 161 115 112 125 124 136 141 149 145 101 72 67 65 63 68 82 96 101 97 85 81 88 85 92 86 92 114 120 131 211 213 187 118 113 95 189 173 171 158 156 90 81 124 319 328 328 328 341 346 357 356 64 92 98 108 118 127 130 136 138 147 151 157 156 201 227 183 150 158 156 164 156 144 155 139 164 145 138 143 145 137 136
168 151 158 163 133 130 131 128 132 141 140 138 139 108 87 89 72 77 78 65 61 73 74 83 101 94 102 113 145 155 154 173 269 22 101 133 106 79 34 47 59 45 90 64 48 323 13 328 337 336 354 322 335 348 16 87 103 119 122 138 140 139 149 158 163 162 170 185 205 162 162 165 170 158 156 155 147 147 155 147 139 144 157 145 141
149 165 173 164 154 147 142 136 131 134 134 140 129 140 117 99 90 92 81 62 73 81 76 93 100 114 127 153 178 166 175 189 193 194 130 136 138 136 138 125 69 74 60 120 298 349 296 305 311 302 284 277 299 312 324 93 124 123 131 147 152 160 158 169 177 169 167 170 206 174 173 175 171 166 157 161 154 156 162 158 158 158 162 149 157
174 168 165 167 159 146 141 135 137 140 136 124 123 108 104 99 95 99 89 73 82 94 93 105 116 131 141 181 183 198 181 189 197 202 179 152 162 166 178 166 151 173 222 118 296 316 297 294 296 287 297 295 296 302 308 310 136 140 150 160 167 164 168 171 177 175 165 175 200 179 180 177 181 179 167 171 168 167 174 177 162 163 156 167 192
159 155 166 163 163 157 146 142 142 142 141 131 120 106 112 109 118 135 113 123 113 114 152 177 142 144 165 196 201 189 180 180 204 197 214 164 170 168 148 163 184 207 193 166 229 293 302 291 292 297 302 304 307 308 309 313 312 177 141 173 169 168 171 176 171 173 174 180 189 184 185 188 199 168 168 177 176 172 179 163 165 163 170 189 211
163 165 157 154 158 149 142 140 139 140 138 132 124 119 121 120 124 127 146 153 134 150 178 186 161 161 180 191 178 197 188 184 194 210 153 197 180 167 167 185 190 207 179 215 202 233 260 266 273 280 292 294 293 290 302 300 294 279 165 151 171 171 170 170 172 168 182 188 185 189 190 197 209 193 178 180 179 175 176 166 162 174 187 194 196
169 152 143 146 134 132 137 136 135 136 135 122 123 127 139 137 145 144 155 144 156 168 178 190 170 169 194 177 177 176 192 186 204 200 179 204 195 198 192 193 208 222 182 211 209 208 233 247 260 267 274 275 280 263 251 285 295 292 250 166 182 183 174 171 173 170 181 189 192 204 194 200 209 206 167 181 184 180 179 173 173 178 178 190 192
144 145 136 131 125 124 126 127 129 135 128 124 128 132 136 143 156 158 153 160 168 169 162 176 195 196 184 159 149 167 180 196 198 209 224 214 202 202 222 216 216 226 212 235 210 212 223 229 230 234 238 256 265 293 290 282 291 351 305 198 186 174 170 169 173 168 175 188 197 208 203 197 201 195 185 190 187 191 199 184 184 180 175 179 209
156 149 135 118 118 117 120 123 124 131 128 126 128 134 142 153 162 167 177 164 151 156 178 187 200 202 176 158 147 173 176 211 204 208 218 236 232 228 241 224 238 226 203 217 243 236 223 228 233 227 224 224 253 255 233 242 349 113 219 216 163 171 169 155 154 148 162 187 204 205 206 197 195 192 187 191 188 213 197 185 191 185 191 199 191
113 128 127 123 128 127 125 124 126 126 130 134 133 139 153 163 168 185 177 155 161 163 179 201 207 193 183 179 181 187 198 201 214 206 210 219 240 246 251 242 244 233 218 204 219 250 260 262 258 243 246 222 238 260 250 186 104 187 222 203 157 157 149 144 153 155 177 202 198 189 209 215 207 194 186 198 191 212 221 189 201 180 182 187 193
138 131 124 129 126 118 117 117 122 127 134 129 132 146 166 168 145 155 166 166 168 161 177 178 197 209 204 200 195 201 205 209 203 219 210 210 230 239 247 253 241 231 218 207 212 218 238 246 254 268 264 259 259 263 290 315 103 136 260 240 157 166 162 159 164 172 182 200 177 178 220 249 226 220 202 198 183 204 243 170 183 168 184 190 195
131 133 138 133 130 124 129 120 125 126 132 132 143 156 166 150 143 161 173 168 152 156 160 156 187 205 204 215 209 212 211 201 195 194 210 209 226 243 248 254 260 242 227 212 211 219 225 236 237 249 267 266 264 281 243 212 157 135 157 164 165 166 166 165 160 174 193 187 162 198 196 208 221 233 224 205 189 201 209 185 193 183 188 196 201
137 136 130 127 133 129 126 121 119 125 120 141 152 157 151 147 146 162 121 132 143 155 166 183 196 200 207 220 224 225 219 203 189 183 198 209 217 229 241 249 248 245 244 230 208 217 218 239 240 249 291 284 298 298 250 202 103 90 309 113 130 168 172 172 178 182 193 177 194 195 200 196 211 226 230 215 197 200 196 187 202 180 199 187 202
129 133 134 130 134 142 136 130 138 133 132 142 142 132 126 128 135 126 148 166 166 181 188 179 188 199 207 218 225 229 232 217 198 188 192 205 215 226 235 232 228 226 236 229 218 209 203 232 305 74 44 320 315 357 3 82 120 141 141 112 177 177 199 189 185 188 179 195 196 195 194 204 210 222 222 213 200 188 190 185 182 181 177 183 204
129 122 128 134 139 140 136 132 121 134 151 163 152 137 136 127 126 151 155 171 185 189 189 180 193 195 195 216 218 224 232 228 216 197 204 203 206 214 223 231 223 223 225 226 235 193 212 196 186 123 160 228 239 188 165 108 162 146 112 209 211 185 208 200 187 177 187 199 205 201 203 194 202 220 208 206 197 181 181 190 174 175 171 174 185
114 111 110 112 119 121 123 155 149 153 166 153 136 118 112 102 110 114 125 157 167 198 182 189 201 189 199 216 217 224 234 227 217 203 207 212 210 208 213 220 212 216 220 227 245 235 233 207 194 130 185 202 195 178 170 133 128 121 125 182 243 243 236 226 175 183 194 205 207 211 199 199 201 215 203 202 194 181 180 179 176 150 168 178 186
109 109 111 123 128 121 120 116 158 170 139 115 94 79 75 69 47 16 46 55 311 247 245 208 186 193 213 212 219 226 232 231 220 206 207 210 214 218 220 209 205 198 209 226 240 238 236 204 187 152 173 195 150 199 104 73 43 69 135 191 247 266 257 235 202 202 202 202 205 202 209 249 230 222 209 201 191 189 182 179 175 165 164 185 176
119 115 123 134 146 150 152 165 192 175 132 106 81 79 89 45 41 37 273 242 240 223 237 240 209 213 212 212 218 224 225 227 216 200 208 218 214 214 214 218 203 197 205 227 233 240 227 219 201 178 182 196 202 186 131 113 113 195 50 273 267 250 250 232 231 219 212 199 170 184 184 197 248 245 224 201 198 190 189 177 177 167 168 173 176
148 136 141 142 134 144 156 159 151 126 98 86 85 92 109 155 159 217 208 243 245 264 278 276 256 237 218 222 224 222 221 221 220 208 214 205 214 214 215 225 211 218 220 225 230 228 224 246 152 214 225 195 232 187 170 134 186 193 177 226 253 259 236 242 238 230 212 180 176 201 202 198 208 216 207 202 207 198 186 183 176 172 174 167 175
141 144 139 129 122 125 123 139 137 130 112 116 109 143 215 193 162 228 190 268 238 216 214 241 231 235 216 216 226 224 216 225 223 223 226 224 217 211 226 214 212 223 234 235 238 243 218 222 187 207 218 204 207 156 168 188 201 172 193 283 234 229 265 241 234 231 210 202 194 200 197 205 213 209 201 196 201 203 192 181 182 178 179 170 179
132 126 129 118 107 104 113 120 128 118 115 150 169 281 204 178 176 158 159 155 266 330 79 292 327 346 297 247 237 243 248 249 235 231 234 232 212 219 228 220 228 211 221 235 228 235 227 216 211 217 211 246 190 212 179 196 181 128 162 211 241 172 288 228 211 216 202 205 198 203 196 207 207 201 197 205 203 199 193 178 185 185 179 176 178
125 123 115 113 116 124 124 121 122 133 146 143 131 159 118 65 47 13 34 6 5 12 8 334 338 324 307 308 276 230 243 251 255 248 240 240 229 227 226 233 230 221 219 232 234 234 231 228 224 221 204 228 247 224 208 191 200 196 169 107 345 260 230 258 167 235 186 207 212 204 202 202 200 200 201 212 199 199 189 190 189 185 182 178 177
120 112 113 114 112 104 104 101 96 96 102 96 140 93 66 87 51 40 12 9 353 357 353 339 329 324 293 294 310 284 262 259 257 254 250 245 238 230 229 231 235 234 225 233 238 239 238 234 218 221 227 218 238 242 246 206 207 209 213 216 175 202 203 243 114 265 189 209 207 212 211 206 201 201 203 204 200 198 196 194 190 189 184 181 179
111 112 109 109 105 101 85 73 74 61 42 51 33 70 62 53 77 95 94 41 11 295 284 300 300 299 299 302 297 306 264 265 274 267 270 259 242 232 235 239 244 246 243 238 242 239 242 240 234 220 230 229 211 239 239 238 227 228 223 234 245 228 164 150 223 95 257 254 206 201 215 217 210 211 209 203 200 195 203 196 191 192 189 182 180
108 102 94 88 89 87 90 82 76 67 55 61 52 59 91 71 61 45 49 31 63 289 319 320 331 323 338 324 326 315 297 254 270 272 247 216 199 214 218 225 231 237 241 240 244 242 238 240 232 230 235 228 227 225 245 233 225 234 203 233 238 247 238 233 244 229 210 196 214 218 213 205 210 215 215 209 199 199 197 200 190 191 192 189 182
94 94 93 98 97 94 90 83 70 70 53 60 66 51 76 89 79 80 60 24 37 14 352 17 14 359 11 349 348 320 313 306 289 277 276 270 261 241 227 230 237 245 238 249 244 247 248 256 252 244 239 246 238 243 243 246 225 236 224 235 239 237 235 226 219 210 212 217 228 196 214 201 206 209 214 216 209 201 199 201 198 188 189 189 187
96 91 90 88 83 84 80 77 58 53 53 67 68 61 63 77 75 67 66 31 22 20 36 26 13 360 12 2 356 354 342 325 315 303 290 267 260 259 254 249 246 248 246 246 252 251 250 250 259 263 261 258 251 249 247 252 243 240 227 233 227 226 229 197 206 212 234 226 231 209 208 200 204 214 201 211 208 202 200 196 185 192 194 197 191
91 88 84 79 79 73 77 72 66 66 53 58 55 47 51 50 78 77 74 57 28 29 29 21 7 5 13 0 0 343 340 328 324 315 302 293 287 262 249 251 247 249 255 253 251 249 252 254 257 256 257 258 261 256 253 249 248 244 236 230 235 228 226 219 208 204 207 209 222 241 228 207 210 211 207 204 203 203 199 188 192 192 192 199 196